Wetbulb
30.33 30.39 30.80 30.57 29.29 28.47 26.84 27.10 27.10 27.35 28.10 28.96 29.15 28.71 29.08 29.64 30.74 30.72 30.77 31.12 30.97 31.99 31.85 31.22 31.93 31.80 33.73 34.27 31.20 31.30 33.12 29.56 33.71 31.33 27.87 28.66 31.88 32.68 31.09 30.93 29.89 30.05 31.48
30.48 29.41 29.25 29.85 29.23 27.61 27.31 26.89 26.21 25.77 26.68 27.08 28.22 28.07 28.10 28.40 28.75 28.82 29.54 30.10 30.40 30.72 31.96 31.15 31.43 32.73 30.89 33.08 33.30 32.81 32.66 30.71 32.68 33.01 26.39 27.60 29.87 32.52 30.99 29.24 28.37 29.40 28.69
29.86 28.56 28.27 26.98 26.86 27.44 27.17 27.49 27.06 27.17 26.55 25.99 26.40 26.13 26.85 27.36 27.83 28.04 27.98 28.80 29.61 30.34 31.74 31.33 31.48 31.30 31.10 31.98 30.95 32.48 33.14 32.68 31.02 30.56 27.48 26.57 27.83 30.78 26.48 27.94 27.10 26.85 27.27
27.01 25.68 24.89 24.72 25.88 26.40 25.73 25.22 25.16 26.35 25.60 25.55 25.74 25.54 26.09 26.52 27.10 27.37 27.90 28.30 28.68 29.65 30.20 30.72 31.76 31.49 31.33 31.81 31.44 31.84 32.32 32.22 30.79 29.52 25.37 25.31 25.98 26.91 29.11 26.78 24.27 25.47 25.79
26.16 25.18 24.89 25.06 25.66 25.50 24.84 24.72 24.15 24.29 24.83 24.71 24.70 24.93 25.20 25.33 26.20 25.10 26.53 27.35 28.11 28.78 29.64 30.26 30.56 31.36 32.98 33.85 32.09 31.96 31.91 31.65 31.82 30.94 29.37 23.49 23.66 25.03 26.63 26.42 26.42 26.08 25.47
24.49 23.98 24.71 24.82 25.13 24.82 24.94 25.08 25.05 24.76 24.22 23.77 23.47 22.92 22.17 24.07 27.67 29.09 28.66 26.33 27.25 27.48 27.72 29.26 30.00 30.30 31.65 34.36 35.56 36.11 34.84 31.82 30.98 31.28 31.13 28.90 28.30 28.76 28.23 26.90 26.71 23.51 21.44
20.94 21.37 21.75 22.69 22.78 23.28 23.45 23.10 22.53 21.91 22.06 21.40 21.58 22.04 21.81 22.28 26.39 27.26 27.49 25.47 25.07 25.60 26.61 27.45 28.36 29.67 29.87 30.27 32.76 35.47 35.54 36.55 36.96 32.85 31.14 31.38 30.19 29.54 28.37 27.50 26.78 26.91 27.24
20.43 18.72 19.25 20.79 19.15 19.53 18.98 18.20 18.19 18.41 17.99 18.25 18.83 19.71 20.16 21.38 25.39 25.91 25.93 23.53 23.04 23.60 24.23 25.11 26.23 27.43 28.88 29.21 29.21 29.57 30.81 32.30 33.44 34.09 33.96 33.24 33.42 30.52 30.32 30.55 28.99 28.85 26.55
19.12 18.99 18.23 16.37 14.33 14.08 12.18 12.58 13.45 13.22 12.99 12.91 14.60 14.52 14.93 15.98 21.04 22.17 22.34 21.07 20.93 20.43 21.77 22.54 23.35 24.59 28.45 31.13 28.95 28.10 28.23 29.76 33.43 35.86 36.42 37.05 37.30 37.21 31.72 29.49 27.60 25.78 22.73
16.84 16.04 15.08 13.53 10.32 9.52 9.66 8.55 9.21 8.94 9.92 10.49 9.91 10.43 10.63 9.91 15.64 17.69 18.31 16.26 15.62 17.17 18.68 20.58 22.98 23.62 26.78 29.05 27.16 27.54 26.86 27.81 29.10 30.06 31.95 34.78 36.18 35.48 35.64 30.12 29.42 25.57 26.18
13.44 12.02 10.52 9.87 7.53 6.79 6.54 6.83 5.86 5.15 6.31 4.83 5.75 6.74 7.28 8.74 9.60 15.40 17.43 15.71 15.30 15.33 16.01 17.34 20.18 24.22 26.09 28.07 29.99 28.12 28.19 30.04 30.22 29.32 29.42 30.37 31.61 32.54 32.97 31.38 30.39 29.07 27.61
8.63 7.30 5.98 4.41 4.52 5.99 3.20 3.42 3.31 2.96 2.46 2.53 2.82 3.85 6.35 8.20 11.52 13.59 15.93 17.27 17.46 13.18 12.73 15.53 17.45 21.91 24.48 27.00 27.86 30.18 32.58 33.01 30.61 28.88 28.61 28.75 29.11 30.16 31.88 32.31 30.08 30.26 31.14
1.43 0.03 0.97 2.83 3.66 3.72 1.58 1.36 1.59 2.52 2.26 2.15 2.91 2.75 3.85 6.92 7.90 13.13 15.37 16.06 16.22 13.20 13.51 15.19 18.47 20.14 22.29 25.31 28.09 30.08 29.82 29.16 29.87 29.27 27.99 27.60 28.63 29.73 31.04 30.66 30.57 29.99 29.84
-5.38 0.40 2.93 2.46 1.45 1.49 2.60 2.51 0.89 0.41 0.67 1.39 1.63 2.06 4.02 6.46 8.65 9.99 9.35 8.52 12.44 12.88 13.95 12.37 14.40 17.45 19.73 21.59 22.62 27.30 28.61 28.87 29.55 29.68 29.16 28.10 29.04 28.60 28.21 27.99 26.19 24.64 24.55
0.20 2.43 1.96 1.97 0.69 0.73 1.74 1.35 2.35 4.47 5.99 5.84 7.84 9.21 8.85 8.85 11.04 16.36 17.60 16.03 15.75 15.31 12.89 10.61 10.63 13.43 15.19 16.68 17.87 24.87 25.96 26.83 26.98 29.45 29.54 27.99 27.31 26.46 25.76 26.61 25.51 23.07 22.69
0.09 1.58 1.37 1.18 0.86 1.01 0.52 0.82 8.16 10.96 13.26 14.98 16.18 14.82 13.23 17.18 18.78 19.45 20.32 20.89 21.57 21.80 15.76 12.93 11.79 11.92 12.27 13.90 16.25 19.85 21.52 22.65 25.53 27.87 28.59 27.90 25.73 23.93 24.48 24.33 24.61 21.97 21.67
-1.81 0.07 0.40 0.28 -0.54 -0.57 -0.32 -0.63 -0.94 4.37 11.70 13.01 14.21 15.50 16.61 17.70 19.65 20.24 20.52 20.96 21.73 21.42 14.24 11.56 10.68 11.71 12.73 13.81 15.51 17.82 21.87 24.66 25.90 27.99 27.10 27.03 24.81 23.89 23.58 22.70 21.83 20.61 20.00
-5.57 -0.94 -1.15 -0.87 -0.68 -0.56 -0.29 0.55 1.29 0.45 0.65 2.90 9.93 12.86 15.62 16.47 17.60 19.37 20.03 20.07 14.36 15.07 12.99 11.07 9.82 11.48 12.46 13.07 15.20 17.50 21.38 24.02 24.81 26.75 26.88 25.61 24.18 23.88 22.41 20.64 20.18 18.77 19.05
-3.02 -0.87 -1.27 -1.30 -0.03 0.64 0.44 0.78 1.28 1.77 2.43 2.77 4.88 8.45 9.24 13.40 16.10 15.01 15.21 9.78 9.95 11.06 12.49 12.86 12.18 12.11 13.61 15.90 15.38 16.92 20.93 21.71 23.16 24.73 23.84 24.69 23.85 21.95 20.07 20.05 18.97 19.01 18.56
-2.85 -1.25 0.36 -2.04 -2.10 -1.45 -1.02 -0.47 0.65 0.90 1.57 1.96 2.07 2.84 4.46 9.26 2.81 3.14 4.52 5.69 6.25 7.16 7.91 7.72 11.77 16.68 16.93 18.24 17.49 21.05 21.78 22.36 22.69 23.39 23.34 21.87 21.49 21.36 19.16 18.24 17.63 16.77 16.36
-2.97 -2.21 -3.37 -4.04 -4.19 -3.23 -2.09 -1.57 -0.51 0.14 0.53 0.53 0.96 3.72 12.91 3.97 1.99 1.94 2.49 3.20 4.27 5.13 6.18 8.39 11.96 17.98 21.01 20.70 21.11 22.73 22.47 21.05 21.79 20.70 19.95 19.06 19.44 17.69 18.56 17.85 16.80 16.57 15.30
-6.38 -6.27 -5.15 -6.19 -4.11 -3.63 -3.49 -2.22 -1.46 -0.72 0.05 0.06 0.85 2.56 9.85 2.55 1.68 1.48 1.87 2.29 3.38 4.51 5.61 6.36 8.98 10.88 11.72 14.40 18.10 19.25 18.82 17.78 17.28 17.27 16.98 16.78 16.69 15.39 14.97 14.28 14.15 13.09 12.59
-6.95 -6.94 -6.37 -7.23 -5.75 -4.58 -4.49 -4.50 -3.00 -1.50 -0.58 0.26 0.84 0.95 1.33 1.31 1.38 1.22 1.14 1.96 2.30 2.75 3.50 4.28 5.06 6.47 9.56 11.23 12.55 13.37 13.04 13.09 14.39 15.18 14.25 13.66 13.20 12.82 12.76 11.75 11.33 11.25 10.95
-10.11 -10.61 -9.84 -10.71 -9.03 -6.46 -7.07 -5.89 -4.28 -2.72 -1.98 -1.06 -0.94 -0.47 0.11 0.39 0.68 1.08 1.56 2.19 2.43 2.53 3.09 3.56 4.60 4.62 6.03 8.57 9.89 10.72 11.28 12.09 13.13 13.32 13.45 12.28 11.31 11.59 11.14 10.42 10.18 10.11 9.59
-12.95 -12.29 -14.55 -14.27 -14.45 -10.78 -9.08 -7.98 -5.93 -5.54 -4.08 -2.68 -2.63 -2.23 -1.81 -0.97 -0.25 0.32 1.15 1.79 2.05 2.28 2.57 3.29 4.12 6.20 6.64 7.32 8.19 9.09 11.06 11.39 11.32 11.96 11.84 11.41 10.50 9.95 9.61 9.04 8.57 8.79 8.71
-11.09 -12.95 -16.38 -18.05 -16.76 -16.17 -15.39 -11.06 -9.90 -8.57 -8.09 -6.00 -5.06 -4.95 -4.34 -3.55 -2.05 -1.22 -0.54 0.26 0.65 1.63 2.13 2.85 3.41 4.20 6.07 9.07 9.96 10.94 11.41 12.04 10.06 10.42 10.40 9.63 8.30 8.06 8.24 7.83 7.87 7.58 7.07
MSLP
1025.35 1025.33 1025.63 1025.73 1025.15 1025.14 1025.00 1024.71 1024.47 1023.82 1023.39 1022.83 1022.32 1021.69 1021.18 1020.26 1019.99 1019.67 1019.31 1018.79 1018.77 1018.76 1018.19 1017.86 1017.44 1016.92 1016.68 1016.53 1016.67 1016.66 1016.90 1016.96 1016.84 1016.87 1017.13 1017.15 1017.44 1017.78 1018.42 1018.98 1019.60 1020.11 1020.39
1025.53 1025.59 1025.37 1025.72 1025.24 1025.02 1024.86 1024.43 1024.31 1023.93 1023.48 1023.00 1022.15 1021.75 1021.14 1020.58 1020.53 1020.07 1019.61 1018.92 1018.60 1018.12 1018.16 1017.79 1017.10 1016.87 1016.22 1015.95 1015.82 1015.80 1015.88 1015.95 1016.09 1016.16 1016.70 1016.88 1016.73 1016.72 1017.23 1018.08 1018.70 1019.22 1019.70
1025.13 1025.17 1025.15 1025.28 1024.86 1024.67 1024.71 1024.59 1023.84 1023.72 1023.19 1022.54 1022.15 1022.01 1020.94 1020.46 1020.39 1020.22 1019.57 1018.75 1018.16 1017.90 1017.36 1016.81 1016.62 1016.48 1015.95 1015.51 1015.16 1014.99 1014.90 1015.05 1015.17 1015.17 1015.65 1016.31 1016.48 1016.43 1017.12 1017.60 1017.85 1018.62 1019.47
1024.81 1024.98 1025.11 1024.94 1024.66 1024.61 1024.53 1024.31 1023.83 1023.41 1022.87 1022.47 1021.83 1021.35 1020.84 1020.06 1019.91 1019.53 1018.94 1018.37 1017.70 1017.27 1016.83 1016.42 1015.85 1015.43 1015.45 1015.03 1014.65 1014.11 1014.18 1014.20 1014.44 1014.38 1014.95 1015.24 1015.43 1015.74 1016.20 1016.80 1017.51 1017.68 1018.24
1024.78 1024.95 1024.94 1024.70 1024.48 1024.30 1024.01 1023.50 1023.06 1022.96 1022.63 1021.97 1021.49 1020.93 1020.44 1019.83 1019.36 1018.79 1018.43 1017.81 1017.09 1016.32 1015.89 1015.55 1015.20 1014.63 1013.94 1014.33 1014.10 1013.31 1013.31 1013.48 1013.59 1013.39 1013.70 1014.15 1014.21 1014.62 1014.61 1015.48 1015.98 1016.59 1017.10
1024.98 1025.11 1024.85 1024.57 1024.46 1024.32 1023.98 1023.61 1023.24 1022.74 1022.11 1021.54 1021.04 1020.44 1019.72 1019.14 1018.66 1018.55 1018.17 1017.23 1016.62 1015.71 1014.93 1014.25 1014.06 1013.80 1013.27 1013.03 1012.76 1012.64 1012.62 1012.62 1012.27 1012.46 1012.39 1011.98 1011.88 1012.07 1013.21 1013.72 1014.62 1015.96 1016.58
1025.33 1025.19 1025.14 1025.00 1024.73 1024.36 1023.94 1023.53 1023.00 1022.39 1021.77 1021.15 1020.42 1019.85 1019.01 1018.43 1018.14 1017.90 1017.45 1016.80 1015.99 1014.84 1014.18 1013.58 1013.00 1012.84 1012.36 1011.64 1011.33 1011.47 1011.16 1011.24 1010.94 1010.98 1010.77 1009.97 1010.62 1010.70 1011.60 1012.43 1012.70 1012.88 1012.84
1025.51 1025.54 1025.34 1025.18 1025.05 1024.73 1024.27 1023.75 1023.08 1022.47 1021.68 1020.81 1019.89 1019.36 1018.69 1017.53 1017.33 1017.14 1016.73 1016.14 1015.21 1014.34 1013.80 1013.10 1012.61 1011.73 1010.99 1010.88 1010.60 1010.09 1009.84 1009.88 1009.65 1009.74 1009.53 1008.63 1009.03 1009.58 1009.92 1010.20 1010.90 1011.43 1012.69
1025.72 1025.64 1025.53 1025.56 1025.37 1025.03 1024.64 1024.10 1023.46 1022.71 1021.84 1021.02 1020.20 1019.31 1018.65 1017.22 1017.18 1016.63 1016.16 1015.28 1014.35 1013.50 1012.95 1012.26 1011.64 1010.61 1009.94 1009.93 1009.62 1008.97 1008.63 1008.00 1008.07 1008.03 1008.09 1008.14 1008.42 1008.55 1008.78 1009.89 1010.20 1011.12 1011.60
1025.82 1025.91 1025.93 1025.85 1025.63 1025.18 1024.65 1024.08 1023.47 1022.86 1021.79 1020.99 1020.07 1019.60 1018.80 1017.65 1017.42 1016.66 1015.99 1015.02 1013.65 1012.69 1011.85 1010.98 1010.40 1009.70 1008.94 1008.59 1008.34 1007.77 1007.32 1006.11 1006.70 1006.70 1006.58 1006.73 1007.09 1007.46 1007.83 1007.52 1008.35 1008.82 1009.21
1025.98 1026.05 1026.04 1025.91 1025.64 1025.15 1024.34 1023.79 1023.05 1022.26 1021.37 1020.65 1019.74 1019.14 1018.47 1017.74 1016.93 1016.18 1015.26 1014.17 1013.19 1011.91 1010.78 1009.74 1008.89 1008.33 1007.57 1006.92 1006.45 1005.97 1005.11 1005.20 1005.12 1005.23 1005.21 1005.33 1005.67 1005.75 1006.15 1006.39 1006.64 1006.62 1007.06
1026.08 1026.03 1025.88 1025.62 1025.27 1024.66 1024.01 1023.21 1022.60 1021.87 1020.86 1019.85 1018.94 1018.09 1017.42 1016.73 1016.07 1015.22 1014.34 1013.37 1012.44 1011.33 1010.19 1009.26 1008.39 1007.60 1006.51 1005.55 1004.81 1003.99 1003.53 1003.58 1003.75 1003.84 1004.05 1003.89 1004.01 1004.02 1004.35 1004.88 1005.27 1005.54 1005.91
1026.11 1025.94 1025.46 1024.98 1024.56 1024.06 1023.46 1022.64 1021.94 1021.08 1020.16 1019.10 1018.17 1017.17 1016.23 1015.51 1014.75 1013.89 1012.94 1012.20 1011.46 1010.43 1009.45 1008.51 1007.50 1006.63 1005.72 1004.45 1003.42 1002.54 1002.04 1001.81 1001.71 1001.76 1001.79 1002.07 1002.36 1002.92 1003.51 1003.79 1004.35 1005.18 1005.65
1025.98 1025.52 1024.91 1024.42 1023.84 1023.34 1022.76 1022.10 1021.25 1020.26 1019.37 1018.38 1017.22 1015.91 1014.67 1013.70 1012.84 1012.02 1011.24 1010.39 1009.51 1008.60 1007.75 1006.84 1006.14 1005.41 1004.68 1003.43 1002.44 1000.84 1000.24 1000.26 1000.27 1000.09 1000.22 1000.69 1001.47 1002.13 1002.47 1003.02 1003.71 1004.64 1005.58
1025.57 1025.04 1024.43 1023.89 1023.31 1022.62 1022.13 1021.40 1020.38 1019.25 1018.35 1016.71 1015.34 1014.18 1012.80 1011.58 1010.92 1009.89 1008.72 1007.85 1007.15 1006.48 1005.91 1005.41 1004.81 1003.98 1003.06 1002.29 1001.36 999.48 998.84 998.93 999.06 999.10 999.10 999.52 1000.14 1000.92 1001.43 1002.15 1003.02 1003.96 1004.66
1025.21 1024.50 1023.92 1023.33 1022.64 1021.94 1021.17 1020.21 1019.12 1018.01 1016.74 1015.52 1014.24 1013.01 1011.70 1010.50 1009.20 1008.16 1007.12 1006.06 1004.98 1004.03 1003.45 1003.29 1002.76 1002.35 1001.88 1001.34 1000.39 999.21 998.20 998.09 998.03 997.93 998.01 998.34 999.13 999.88 1000.72 1001.53 1002.11 1002.92 1003.77
1024.90 1024.16 1023.44 1022.82 1022.06 1021.32 1020.60 1019.68 1018.24 1016.23 1015.53 1014.58 1013.55 1012.24 1010.92 1009.43 1007.84 1006.59 1005.59 1004.58 1003.46 1002.42 1001.95 1001.62 1001.22 1000.94 1000.50 1000.03 999.57 998.70 997.52 996.98 996.95 996.90 996.96 997.52 998.23 998.99 999.76 1000.54 1001.30 1002.15 1003.23
1024.28 1023.65 1023.11 1022.43 1021.61 1020.85 1020.15 1019.11 1018.03 1016.82 1015.30 1013.32 1012.13 1011.46 1009.94 1008.77 1007.39 1005.79 1004.51 1003.27 1002.45 1001.60 1000.99 1000.30 999.93 999.63 999.32 998.97 998.28 997.60 996.88 996.19 996.11 996.03 996.13 996.60 997.28 997.91 998.80 999.70 1000.56 1001.34 1002.36
1023.75 1023.04 1022.55 1021.99 1021.00 1020.32 1019.64 1018.61 1017.54 1016.35 1015.19 1013.87 1012.18 1010.84 1010.11 1008.65 1007.06 1006.11 1005.14 1004.24 1002.93 1001.64 1000.40 999.38 998.72 998.17 997.64 997.11 996.96 996.55 995.96 995.45 995.37 995.47 995.64 995.92 996.49 997.24 998.11 998.97 999.90 1000.77 1001.67
1023.02 1022.51 1021.97 1021.58 1020.65 1019.98 1019.30 1018.31 1017.12 1016.02 1014.87 1013.78 1012.65 1011.48 1010.10 1008.25 1007.58 1006.45 1005.57 1004.61 1003.43 1002.16 1000.85 999.63 997.96 996.63 996.16 995.55 995.54 995.21 994.93 994.81 994.84 994.94 995.11 995.53 996.12 996.79 997.69 998.62 999.63 1000.45 1001.35
1022.60 1022.07 1021.81 1021.21 1020.43 1019.94 1019.23 1018.28 1017.24 1016.16 1015.08 1014.03 1012.90 1011.67 1009.83 1009.19 1008.25 1007.29 1006.18 1005.11 1003.97 1002.65 1001.20 999.64 997.85 996.38 995.31 994.44 994.40 994.34 994.19 994.29 994.44 994.73 995.11 995.63 996.14 996.88 997.68 998.58 999.48 1000.33 1001.25
1022.21 1022.00 1021.61 1020.91 1020.26 1019.69 1019.03 1018.14 1017.12 1016.18 1015.22 1014.13 1012.84 1011.69 1010.32 1009.51 1008.68 1007.73 1006.74 1005.71 1004.64 1003.50 1002.19 1000.78 999.26 997.77 996.66 995.65 994.87 994.44 994.38 994.55 994.80 995.13 995.55 996.05 996.58 997.32 998.08 998.98 999.88 1000.74 1001.59
1021.86 1021.77 1021.33 1020.61 1020.04 1019.52 1018.79 1017.96 1017.13 1016.23 1015.27 1014.32 1013.28 1012.16 1011.04 1010.10 1009.23 1008.31 1007.37 1006.30 1005.23 1004.08 1002.84 1001.61 1000.44 999.33 998.23 997.32 996.57 996.07 995.93 995.90 995.84 995.92 996.26 996.81 997.41 998.02 998.70 999.48 1000.27 1001.16 1001.95
1021.61 1021.60 1021.15 1020.38 1019.96 1019.52 1018.94 1018.16 1017.31 1016.50 1015.73 1014.77 1013.84 1012.88 1011.93 1010.98 1010.01 1009.02 1008.07 1007.07 1006.00 1004.97 1003.91 1002.77 1001.74 1000.80 999.83 998.80 998.14 997.68 997.42 997.22 997.08 997.23 997.45 997.83 998.40 998.97 999.57 1000.30 1001.02 1001.77 1002.45
1021.33 1021.43 1020.90 1020.42 1020.22 1019.75 1019.14 1018.40 1017.61 1016.90 1016.17 1015.32 1014.47 1013.64 1012.79 1011.85 1010.83 1009.79 1008.85 1007.93 1006.93 1005.92 1004.90 1003.89 1002.93 1001.89 1001.04 1000.25 999.73 999.22 998.80 998.42 998.39 998.45 998.67 999.01 999.46 999.90 1000.41 1001.14 1001.84 1002.49 1003.08
1021.03 1020.99 1020.72 1020.49 1020.24 1019.85 1019.38 1018.75 1018.06 1017.32 1016.60 1015.77 1015.02 1014.28 1013.50 1012.57 1011.55 1010.61 1009.68 1008.77 1007.89 1006.93 1006.03 1005.08 1004.11 1003.13 1002.20 1001.40 1000.82 1000.36 1000.00 999.81 999.85 999.83 999.91 1000.16 1000.56 1001.03 1001.46 1002.22 1002.75 1003.33 1003.98
Wind_Speed
4 4 5 5 4 4 4 5 7 6 7 8 8 7 9 10 9 7 7 6 7 9 7 7 10 7 9 8 5 5 9 5 14 6 4 5 11 12 10 11 11 11 10
2 0 2 4 5 6 6 6 6 7 6 7 7 7 8 8 9 8 9 7 7 8 10 9 10 7 9 10 8 11 10 7 10 15 6 6 8 15 13 13 11 9 9
2 1 3 3 4 5 6 7 8 8 9 9 8 8 8 7 8 10 9 9 9 10 10 10 12 9 11 9 9 11 10 8 8 8 7 2 4 7 5 7 10 8 7
2 2 4 5 5 6 6 7 7 8 8 9 9 10 10 10 10 10 10 10 10 10 10 11 11 11 13 12 10 12 11 10 8 9 5 4 4 4 8 10 7 7 10
3 5 6 6 7 8 8 9 8 7 9 10 12 11 11 11 10 10 11 12 12 13 12 11 12 14 18 17 10 11 10 11 11 11 11 4 5 5 15 8 11 9 9
4 6 6 8 10 10 11 12 12 13 13 12 13 13 14 11 22 26 23 15 15 15 16 14 12 14 17 24 25 27 20 13 15 13 13 15 17 11 11 11 10 7 7
3 5 7 8 10 11 11 12 14 16 16 17 17 16 18 17 25 27 28 16 17 17 17 16 15 12 14 13 19 25 27 30 29 18 19 20 14 13 12 15 16 14 11
4 5 5 6 6 9 12 14 16 15 17 17 18 18 18 18 31 32 31 19 17 18 18 18 19 19 17 15 14 16 17 17 21 16 21 20 16 10 16 17 17 16 1
6 6 5 6 9 12 13 14 14 15 16 17 17 19 19 21 31 34 31 19 18 20 19 20 20 21 26 30 19 18 17 18 20 29 31 30 26 23 19 10 12 11 9
4 6 9 9 8 12 14 15 14 13 16 14 17 17 19 20 27 32 28 15 19 16 19 20 29 29 35 34 22 18 19 20 15 15 18 25 27 21 25 20 15 15 13
5 7 7 8 10 12 13 12 14 15 15 15 17 15 16 17 17 28 28 16 14 15 15 15 15 30 34 35 34 20 22 18 18 15 14 13 14 16 12 16 18 16 15
5 7 9 9 8 9 12 13 13 14 15 15 16 14 11 13 20 23 27 28 26 17 18 15 17 33 36 36 31 32 32 28 15 12 13 13 13 13 14 14 17 15 14
4 7 8 9 9 9 11 12 11 12 12 13 12 13 13 12 12 27 30 30 29 20 15 23 37 38 39 33 37 37 30 15 14 14 14 13 13 12 12 10 12 16 16
5 8 8 9 10 9 8 10 10 11 11 12 12 14 14 12 11 11 12 15 25 23 25 19 22 27 32 30 23 22 15 13 12 12 12 12 10 10 10 8 8 8 10
7 9 9 8 9 10 9 11 10 13 14 14 13 13 15 14 13 25 24 15 13 16 18 14 13 12 12 12 14 11 9 11 13 13 11 10 10 9 10 9 9 8 10
8 8 8 9 8 9 10 11 22 25 28 30 32 25 15 28 34 34 33 33 33 32 15 13 13 12 12 12 12 12 9 12 13 14 10 11 10 11 11 9 10 11 11
7 10 9 10 8 9 10 11 12 18 27 27 28 30 31 31 34 32 31 31 32 28 11 11 12 12 10 11 11 12 10 9 12 10 10 10 11 11 13 11 10 10 9
5 11 8 8 8 9 10 11 11 12 14 17 21 26 28 31 32 32 31 27 14 15 11 12 11 11 9 11 11 11 12 8 9 10 9 10 11 12 10 12 12 13 12
6 6 7 8 8 10 11 11 10 11 12 13 14 18 18 30 30 28 26 11 12 11 12 11 11 11 11 11 12 12 12 8 8 8 7 9 10 10 11 11 12 16 14
5 10 9 7 7 9 9 10 10 11 12 12 12 13 14 13 12 13 11 11 10 11 12 12 13 11 11 10 11 12 11 9 8 9 7 8 9 10 11 11 11 11 11
5 6 9 6 5 7 8 9 9 9 10 11 11 13 28 12 11 11 11 11 11 12 13 13 12 8 9 7 9 8 7 6 6 5 6 6 8 8 8 9 9 10 9
3 5 6 5 6 7 8 8 8 9 10 11 11 12 25 9 10 10 11 11 11 11 10 11 10 9 9 9 6 2 3 4 4 5 5 6 7 7 8 8 9 9 10
3 5 6 4 4 8 7 7 7 8 9 10 11 11 11 10 10 11 11 11 11 11 10 10 11 11 10 9 8 7 6 5 4 5 7 7 7 8 8 9 10 9 9
3 4 5 3 3 6 6 7 7 9 9 9 10 10 10 10 11 12 11 11 11 11 10 10 10 13 11 9 7 7 6 6 5 6 7 7 7 8 8 8 8 10 9
2 3 3 3 4 5 6 6 6 7 8 8 8 9 9 9 10 11 11 11 10 10 12 11 10 13 13 15 13 12 11 11 9 9 6 8 9 10 8 7 9 8 10
2 3 2 2 3 3 3 5 6 6 7 7 8 8 8 9 9 9 10 10 10 10 12 10 13 17 16 8 9 10 11 12 11 12 8 8 9 8 8 9 12 9 10
Wind_Direction
34 21 0 345 4 349 340 339 337 327 328 336 332 335 337 342 338 333 313 298 297 290 274 253 256 238 250 245 220 221 233 202 248 245 219 206 193 192 188 193 186 195 203
173 47 3 319 335 334 328 323 323 318 316 315 318 319 323 330 324 323 311 301 289 282 282 275 263 260 251 249 243 241 236 211 227 244 197 200 195 200 192 188 195 200 198
111 41 335 303 323 311 311 303 312 308 307 315 313 299 300 294 299 300 297 296 291 282 277 267 273 262 259 254 241 247 243 237 226 226 221 185 208 191 165 195 191 191 202
328 318 320 320 320 313 287 278 277 276 287 292 293 295 293 295 287 280 279 280 278 277 274 272 268 255 260 258 246 245 247 240 228 229 210 181 187 186 194 191 191 196 202
304 319 313 315 325 319 310 309 305 295 291 296 297 294 290 287 286 291 283 279 274 275 270 260 262 259 255 254 261 254 243 241 239 235 237 195 190 167 196 183 204 194 211
333 315 318 330 322 310 307 307 307 308 308 301 294 293 291 288 290 291 291 287 282 278 276 270 262 258 255 253 249 251 245 241 239 238 241 229 222 208 191 190 184 182 208
338 324 321 310 305 306 310 313 312 309 307 302 298 295 291 286 286 291 294 291 288 281 276 275 273 262 254 250 251 250 247 245 245 241 240 238 234 209 184 193 198 200 210
317 300 295 303 314 323 318 311 308 305 303 301 297 296 294 290 293 296 295 289 284 280 279 277 270 268 262 255 250 242 239 235 237 239 245 247 240 205 204 203 199 205 4
307 312 344 341 319 312 304 302 302 301 298 296 294 295 295 294 301 301 300 294 285 282 280 274 272 273 269 264 258 250 245 240 236 234 235 249 252 242 200 190 204 191 204
330 329 320 314 302 300 299 299 295 290 289 292 291 291 292 293 299 298 298 289 286 286 282 277 273 269 269 264 258 253 249 243 231 230 234 238 236 240 227 205 194 206 212
329 312 305 300 298 292 291 294 294 292 289 289 287 288 287 287 290 294 295 288 284 281 276 273 268 268 270 268 261 248 245 251 243 233 231 230 228 226 223 217 215 206 208
305 300 296 290 284 290 288 290 290 289 288 289 289 288 284 284 284 289 291 292 291 290 287 286 283 283 279 273 267 259 256 251 242 226 231 227 225 221 220 215 217 222 229
293 285 284 287 288 287 291 294 295 289 290 291 291 291 288 281 274 277 282 285 283 280 276 277 281 282 283 278 273 263 255 248 240 233 224 227 223 225 222 211 207 222 235
278 292 295 298 296 289 295 292 291 289 288 288 286 283 281 277 272 267 260 260 263 268 268 270 267 270 265 273 284 259 241 239 239 233 226 222 217 213 207 191 191 190 206
301 301 300 294 294 297 289 288 282 281 282 285 287 289 294 292 289 289 296 295 283 262 251 248 252 257 261 271 284 266 235 230 236 242 223 211 205 198 198 185 186 178 194
303 308 304 301 299 300 298 292 290 295 299 300 301 301 296 295 300 299 297 295 292 290 272 269 270 261 262 272 271 274 247 241 241 236 223 206 198 191 193 189 183 187 190
289 303 302 301 299 304 300 296 301 307 305 306 308 307 307 301 300 301 304 300 296 296 271 266 263 264 259 252 265 267 262 245 234 233 214 208 194 193 188 186 183 178 182
274 288 289 290 297 301 296 296 300 304 308 312 315 315 318 320 317 313 311 310 301 291 272 260 258 255 256 254 249 255 263 245 228 226 216 196 192 191 187 184 183 180 179
291 295 296 288 293 301 299 297 300 303 307 306 312 318 322 316 320 329 328 319 311 307 294 268 250 247 244 238 234 245 246 232 218 220 202 197 190 181 185 184 182 184 177
284 284 298 297 303 306 304 304 310 314 315 317 319 317 316 322 333 328 329 323 319 314 313 302 279 252 248 242 229 240 232 230 225 217 202 184 180 180 182 174 176 173 175
285 305 297 284 305 301 301 307 311 318 318 320 318 320 331 347 328 329 329 329 327 325 323 326 341 320 288 228 229 232 228 214 206 190 171 168 165 163 163 166 167 166 157
273 291 291 298 306 306 305 305 315 319 322 323 324 328 342 340 337 334 333 334 331 331 332 333 338 349 354 357 358 13 119 131 128 133 136 139 136 134 137 140 144 144 147
286 289 289 290 309 310 314 316 319 326 327 329 331 333 340 343 342 343 340 340 341 341 345 350 354 353 355 1 13 26 37 36 57 101 115 119 124 129 135 138 142 145 149
287 290 286 301 319 319 314 320 322 333 332 333 336 339 342 342 344 345 346 344 347 348 352 357 0 4 0 5 10 20 32 40 53 76 99 111 116 123 123 127 134 139 136
296 297 302 319 313 310 312 316 327 328 332 336 338 339 339 341 345 348 348 348 349 353 355 356 360 4 15 20 25 28 35 52 62 68 75 91 101 108 112 113 123 122 123
291 292 315 324 311 307 299 322 320 323 325 330 329 328 330 334 339 343 345 351 351 354 356 358 357 1 3 12 31 43 56 62 61 68 78 88 94 95 99 105 108 107 108